RH
40 41 46 50 55 57 59 61 64 68 70 69 68 66 64 64 63 62 63 63 63 62 61 61 61 60 58 56 56 55 55 54 52 51 51 50 49 48 46 46 44 43 42 41 42 41 41 42 42 43 42 42 41 41 41 41 42 42 43 43 42 42 43 45 43 51 52 48 55 51 49 50 52 58 56 59 62 62 64 63 66 68 69 70 69
36 39 44 52 56 55 57 59 61 66 69 69 68 64 62 62 61 60 60 61 61 62 61 61 60 59 57 56 55 54 53 53 52 51 50 47 46 45 44 43 42 41 40 39 37 37 39 40 41 42 41 41 41 40 41 41 41 41 42 42 41 40 42 42 44 54 53 53 65 62 54 55 57 59 57 61 64 64 65 66 68 69 71 71 70
33 37 47 54 54 54 54 56 59 62 66 68 67 65 64 62 61 59 59 60 60 62 62 61 60 57 56 55 54 53 53 52 50 47 44 42 41 42 42 41 41 39 35 34 33 34 35 37 38 38 39 39 39 39 39 40 39 38 37 38 38 37 37 37 41 47 50 57 65 63 59 60 61 60 60 64 65 67 67 65 67 70 69 69 70
32 40 51 55 55 54 53 55 57 60 63 66 67 66 65 63 60 59 59 59 60 62 62 60 58 57 55 54 54 53 51 48 45 41 40 39 39 41 40 38 36 33 32 31 31 33 34 34 34 35 36 37 38 39 40 40 38 37 38 40 40 40 41 41 45 49 53 59 63 63 62 62 63 60 62 64 64 67 69 67 69 71 70 69 69
34 45 54 56 56 53 53 54 56 58 60 63 65 65 63 61 59 59 60 60 62 62 61 59 57 56 54 54 53 49 45 41 38 37 36 36 37 37 35 33 32 33 33 35 36 36 38 37 36 37 35 36 38 40 42 42 40 40 43 46 49 51 54 59 60 59 59 63 65 64 61 59 60 60 63 65 66 69 67 68 72 75 74 73 71
40 49 55 57 55 53 54 54 56 57 58 60 60 61 61 58 58 59 61 63 63 61 60 58 55 54 53 51 46 40 37 35 34 33 33 32 32 32 32 32 33 36 35 42 47 42 44 42 42 44 37 35 37 41 43 41 43 44 47 51 55 59 64 73 70 64 64 66 67 65 62 62 63 67 70 69 72 73 70 72 75 76 75 70 69
45 52 56 56 55 56 55 55 56 56 58 60 59 60 59 58 59 60 62 63 61 60 58 56 54 52 48 42 35 32 31 31 32 31 31 31 31 32 32 32 33 35 37 49 52 45 48 43 42 43 34 34 37 40 41 42 45 47 52 56 59 63 68 71 69 68 69 67 68 69 69 68 69 70 72 74 74 74 74 76 74 73 72 66 66
47 52 54 54 56 56 55 57 56 57 60 61 61 60 60 60 61 61 62 61 59 57 56 54 51 45 38 31 28 28 29 31 32 33 34 35 36 36 34 33 31 30 35 49 51 45 46 43 40 37 30 32 35 38 40 41 44 48 54 59 63 65 67 66 67 69 67 66 68 71 70 68 68 66 69 75 74 73 72 73 71 71 72 69 70
48 52 53 55 55 54 55 56 55 57 61 62 61 60 62 62 61 61 59 58 57 56 55 52 44 36 29 26 27 28 30 33 36 37 39 40 39 36 33 30 25 25 33 48 52 44 45 45 41 38 33 29 31 35 38 40 43 49 50 54 61 65 67 64 65 65 63 65 67 67 68 67 64 67 72 74 74 73 71 69 67 67 69 69 70
50 52 53 55 54 54 54 53 55 59 63 65 64 63 63 61 61 59 57 57 57 56 52 46 37 31 27 26 27 29 33 37 41 42 43 41 38 33 26 21 15 16 25 41 47 46 52 50 43 44 38 30 30 32 35 37 39 44 44 47 56 64 67 64 65 64 62 64 64 64 65 64 63 67 71 72 73 70 68 67 66 66 64 65 66
52 51 50 53 53 52 51 53 58 62 64 65 66 64 62 59 59 57 57 58 57 54 47 40 35 32 31 31 32 36 41 44 45 43 42 38 33 28 19 13 8 7 11 20 27 35 47 47 44 42 36 35 37 32 31 32 34 39 42 47 56 64 66 64 65 63 62 61 59 60 59 60 61 62 63 68 68 64 63 61 61 63 62 65 67
52 49 49 51 51 49 52 57 61 63 63 64 64 62 59 57 57 58 59 59 55 50 43 40 39 39 40 41 42 45 46 46 45 42 40 35 29 23 15 9 6 6 8 11 14 19 29 39 41 35 34 38 39 33 27 31 38 44 49 55 60 64 64 63 62 61 60 57 55 55 56 56 58 60 61 68 69 65 63 62 60 58 60 64 65
52 49 50 51 51 50 55 61 63 62 62 63 63 60 59 58 58 60 60 57 53 48 46 44 43 45 46 47 48 48 45 43 43 42 39 35 28 21 14 8 5 8 11 14 16 17 20 29 33 29 35 39 39 35 26 32 43 49 56 62 65 64 62 62 61 60 58 54 50 49 53 56 59 60 58 62 65 65 65 66 65 60 60 59 62
52 51 50 51 52 53 57 62 61 60 61 62 62 60 59 59 60 61 59 55 51 50 49 47 46 46 46 47 48 47 43 38 39 41 40 37 30 22 15 9 7 9 13 17 20 21 20 25 27 26 36 39 36 34 31 36 39 43 56 64 67 64 62 62 62 62 57 52 48 48 55 57 59 58 53 53 56 61 59 62 63 60 58 56 63
52 51 51 51 52 55 58 59 60 61 62 62 62 60 59 59 60 60 57 53 51 50 49 48 46 43 41 41 42 42 39 36 37 41 42 40 34 25 19 13 10 10 12 16 19 22 23 27 29 29 32 31 30 30 32 36 34 37 52 62 65 67 65 64 64 62 58 54 51 52 54 54 57 59 57 53 56 59 51 60 64 55 57 60 64
51 53 53 52 55 58 58 59 61 63 63 63 62 60 59 59 59 57 53 49 47 46 45 45 43 40 37 36 37 37 37 35 35 39 41 40 37 30 23 17 13 11 10 12 15 19 22 25 27 27 25 24 27 29 30 35 34 36 50 60 64 67 65 63 61 59 58 56 54 50 45 53 63 61 60 58 57 59 57 65 57 46 58 65 63
53 55 53 55 59 59 57 59 63 65 64 64 62 60 59 58 57 54 50 47 45 43 41 37 35 34 31 32 34 35 34 33 34 37 38 37 37 34 28 19 14 12 10 10 10 14 15 17 18 18 19 20 19 20 27 31 30 36 50 61 65 62 58 56 49 43 42 43 50 46 35 44 57 50 55 65 61 64 72 58 34 43 64 64 63
52 55 56 58 60 58 57 60 64 65 65 65 64 60 57 56 55 53 49 45 41 37 33 28 25 24 24 26 27 28 29 30 31 33 34 34 34 34 30 21 15 12 12 10 8 9 9 12 13 15 19 13 6 8 16 20 27 45 60 65 64 58 51 46 38 26 20 21 31 31 19 19 26 22 30 50 53 60 68 34 10 36 59 63 67
52 59 59 56 56 57 58 60 63 66 67 67 65 61 57 54 53 52 48 40 33 27 22 18 17 18 19 20 20 21 23 24 23 26 29 30 31 32 31 24 17 13 13 11 8 7 7 10 17 28 32 19 10 12 15 21 32 50 63 64 58 52 48 44 37 26 16 11 11 10 7 4 6 7 8 18 23 32 39 16 2 17 31 49 60
57 61 56 52 56 58 58 59 64 69 68 66 66 63 58 53 51 48 41 31 23 18 14 13 14 15 15 14 14 14 15 14 14 18 21 23 25 28 30 26 19 14 14 12 8 7 6 12 26 42 48 38 32 28 26 33 40 46 57 61 55 50 47 45 42 34 25 15 5 2 4 3 3 5 3 4 5 8 13 6 2 5 7 19 28
59 56 53 55 58 58 57 60 66 69 66 65 66 63 58 51 44 39 32 23 16 13 12 11 12 12 11 9 8 7 7 8 7 10 11 13 17 22 27 27 21 15 14 12 8 7 5 17 38 49 50 49 48 44 39 42 44 48 56 56 53 55 53 50 48 43 39 30 14 3 2 4 3 4 3 3 4 3 4 3 2 3 2 4 6
57 52 53 58 59 58 59 63 67 68 65 64 63 61 57 48 41 38 29 18 12 11 10 9 8 8 7 4 4 4 4 5 4 4 4 6 11 16 22 27 24 16 13 12 9 7 5 17 39 47 44 44 47 49 50 49 47 51 56 52 49 57 58 54 52 48 46 42 30 13 2 3 3 3 4 2 3 3 2 3 3 3 3 3 3
55 52 52 57 61 61 62 65 68 68 64 61 62 61 56 49 45 38 23 13 12 11 9 7 5 4 4 3 3 3 3 3 3 3 2 4 7 11 16 23 24 18 14 12 8 7 5 13 29 39 39 36 38 45 51 54 55 56 55 51 51 57 59 55 52 51 49 47 43 29 8 2 4 3 4 3 3 3 3 3 3 3 3 3 3
56 51 51 58 63 63 65 68 67 65 61 59 60 59 57 52 42 29 18 14 15 12 8 6 5 4 3 3 3 2 3 2 2 3 2 3 5 8 13 18 21 17 14 12 9 7 6 9 17 28 33 29 29 36 48 59 64 58 48 49 53 52 53 53 51 51 52 50 48 40 17 3 4 4 3 4 3 3 3 3 4 3 3 3 4
56 52 55 64 67 66 68 68 66 65 61 57 56 56 56 47 34 26 21 19 15 10 7 6 4 3 3 3 3 2 2 2 2 2 2 3 3 7 11 15 18 17 13 11 9 7 7 8 11 19 25 26 26 31 50 72 76 62 48 52 55 52 51 48 46 46 49 49 45 41 24 7 5 5 4 4 4 4 4 3 4 5 6 7 6
58 54 57 65 68 67 68 68 66 64 60 54 52 55 56 46 34 28 22 16 11 7 6 5 4 3 3 3 3 3 3 2 2 2 2 3 3 5 9 13 18 18 13 10 10 8 6 8 10 14 17 22 27 34 55 77 83 73 59 58 60 61 56 47 45 45 44 44 36 30 21 8 5 5 5 5 5 5 6 7 8 10 10 10 10
58 56 57 64 68 66 67 66 62 62 59 54 54 58 56 42 28 19 13 9 7 6 5 5 4 3 2 2 3 2 3 2 2 2 2 3 3 4 7 10 15 18 14 10 9 7 6 7 8 10 12 15 26 38 57 71 79 79 68 60 64 68 64 53 47 42 39 38 30 19 12 7 6 6 7 7 9 9 11 11 11 11 10 9 8
58 58 62 66 68 67 65 62 61 62 59 55 55 55 47 31 18 12 9 7 6 6 5 4 3 2 2 2 2 2 2 2 2 2 2 2 2 3 5 7 11 16 15 11 9 7 6 7 6 8 9 14 30 44 58 66 69 74 69 60 59 63 63 54 44 37 33 29 25 17 9 8 8 9 10 11 13 12 12 11 10 9 7 6 4
60 63 68 69 69 68 65 63 63 62 58 54 52 50 40 26 17 12 8 6 5 5 4 4 3 2 2 2 2 2 2 2 2 2 2 2 2 2 3 4 8 13 14 11 9 7 6 7 7 9 9 16 33 43 52 58 59 65 67 58 49 50 50 42 35 32 26 21 20 16 11 11 12 13 13 13 12 11 10 8 6 5 4 3 3
63 67 71 72 70 67 64 63 62 61 59 53 48 44 34 22 14 10 8 6 5 4 4 3 3 2 2 2 2 2 2 2 2 2 2 2 2 2 2 3 5 8 11 10 7 6 6 7 7 8 10 16 26 31 34 39 44 53 57 48 40 40 35 27 25 24 19 16 15 14 13 13 14 13 12 11 10 8 6 4 3 3 2 2 2
64 69 71 71 69 66 63 62 61 62 58 48 39 32 23 14 10 8 7 6 5 4 3 3 3 3 2 2 3 3 3 3 2 3 2 3 2 2 3 2 3 5 8 7 6 6 6 6 6 9 13 16 19 19 19 22 32 42 43 36 32 32 25 18 20 19 16 14 13 14 14 13 12 11 10 9 7 5 3 2 2 2 2 2 2
66 70 70 69 68 67 65 64 65 62 54 42 32 24 17 11 8 7 7 6 5 3 3 3 2 2 3 2 3 3 3 3 3 3 2 2 2 2 3 2 3 4 5 5 5 5 5 6 9 13 15 15 16 16 15 17 26 34 34 29 24 22 19 16 19 18 15 14 14 13 12 12 11 9 8 6 3 2 2 2 2 2 2 2 3
66 70 68 67 69 70 68 68 68 62 54 42 29 21 15 10 8 7 6 5 4 3 3 3 2 3 3 3 3 3 3 4 4 4 4 4 4 3 3 3 3 4 4 5 5 6 8 11 13 15 16 15 15 16 16 15 18 25 27 22 17 14 14 15 18 19 17 15 13 12 11 11 10 8 6 3 2 2 2 2 2 2 3 3 4
64 68 68 68 70 71 68 66 66 63 57 43 28 19 13 9 8 7 6 5 3 3 3 2 3 3 3 3 4 5 6 7 8 8 8 8 8 7 7 7 7 7 8 9 10 12 14 15 15 16 16 15 15 15 15 14 13 17 18 16 13 13 14 15 17 19 17 13 11 11 11 10 8 5 3 2 2 2 2 2 3 3 4 4 5
64 68 69 69 70 70 65 63 62 59 51 37 24 15 10 8 8 7 6 4 3 3 3 3 3 4 4 5 6 8 9 10 11 11 12 12 12 12 12 12 12 13 13 14 15 15 16 16 16 17 16 15 15 15 15 14 13 14 15 14 12 13 14 14 14 14 13 12 10 10 10 8 5 3 2 2 2 2 3 3 4 5 5 6 6
68 67 67 69 70 68 65 63 60 53 40 25 15 10 8 8 7 7 4 3 3 3 3 3 4 5 6 8 9 10 11 11 12 12 13 13 13 14 14 15 15 15 15 15 15 15 16 16 16 17 16 16 16 16 14 13 13 13 13 13 13 13 12 12 11 10 10 10 10 9 8 5 3 2 2 2 2 3 4 5 6 6 6 7 8
70 67 68 69 69 66 63 62 58 49 32 15 10 8 7 7 6 6 3 3 3 3 4 4 5 7 9 11 11 11 11 12 12 13 13 13 14 14 15 15 15 15 15 15 15 15 15 15 16 16 16 16 17 17 15 14 13 13 13 12 12 12 11 11 10 9 9 7 6 6 5 4 3 2 2 3 4 5 6 7 7 7 8 8 8
69 69 70 69 67 63 58 54 50 38 21 9 8 7 6 6 5 4 3 3 3 3 4 5 7 9 10 11 11 11 12 12 13 13 13 13 13 14 15 15 14 13 13 13 13 13 14 15 16 16 16 16 16 18 18 16 15 13 13 12 12 11 11 11 10 9 7 4 3 2 2 3 2 3 4 5 6 6 7 7 8 8 9 9 9
68 70 71 69 64 57 51 44 34 21 11 7 7 6 5 5 4 3 3 3 3 4 5 7 10 10 10 10 11 12 12 13 12 12 13 12 12 13 13 13 12 11 11 11 12 11 12 13 13 14 15 15 15 17 18 18 16 15 14 12 11 10 10 10 9 8 5 3 3 2 2 3 4 5 6 7 7 8 8 8 9 9 9 10 10
69 70 70 66 59 52 46 38 25 13 8 7 5 5 5 4 4 3 3 3 3 4 7 10 11 10 10 11 12 13 13 13 12 11 12 11 11 11 11 12 11 11 11 11 11 11 11 11 11 12 12 14 15 15 16 17 16 15 15 13 11 10 9 9 8 6 4 3 2 2 3 4 6 6 7 8 8 8 9 10 10 10 11 11 11
68 69 67 61 54 48 43 32 20 11 7 5 4 4 4 3 3 2 3 4 4 6 9 11 11 10 11 12 12 12 12 12 11 11 11 11 11 11 11 11 11 11 11 11 11 10 10 10 10 10 11 12 13 13 14 14 13 13 13 13 11 10 10 9 6 4 3 3 3 4 5 6 7 8 8 9 9 10 10 11 12 12 13 13 14
67 67 65 58 50 46 40 27 14 8 5 4 4 4 3 3 3 2 3 4 4 8 11 11 11 11 11 12 12 12 12 12 11 11 11 10 10 11 11 12 12 12 11 10 9 9 9 9 9 10 10 10 11 11 11 11 11 11 11 10 9 8 8 6 4 3 3 4 5 5 6 7 8 9 10 11 11 12 12 13 14 14 15 16 17
66 65 62 54 47 42 34 20 10 6 5 4 4 4 3 3 3 3 3 4 6 10 12 11 11 12 12 12 12 12 11 11 11 11 11 11 11 12 12 12 11 10 9 9 8 8 8 8 8 8 8 9 9 10 9 9 9 9 9 8 7 6 5 4 3 4 4 5 6 7 7 8 10 11 11 12 13 13 14 15 15 16 17 18 20
64 62 56 48 43 37 26 13 8 6 4 4 4 3 3 3 3 3 4 4 7 11 12 11 12 12 12 12 12 12 12 12 12 11 11 11 12 12 12 11 10 9 9 8 8 8 7 7 7 7 7 7 7 7 7 7 6 7 6 5 6 5 5 5 5 5 6 6 7 8 8 9 11 12 13 14 14 15 17 17 18 19 20 21 22
64 59 50 44 41 35 23 12 8 5 4 4 3 3 3 3 3 4 5 5 8 12 12 12 12 12 12 13 13 12 12 12 12 12 12 12 12 11 10 9 9 8 8 8 8 7 7 6 6 6 6 6 5 5 5 5 5 5 6 6 7 7 6 6 7 7 8 8 8 9 10 11 12 13 13 14 15 17 18 19 20 20 21 23 24
62 57 51 47 41 34 23 13 8 5 4 4 3 3 3 3 4 5 5 7 10 12 12 12 12 12 13 13 13 13 12 12 12 12 12 12 11 10 9 9 9 8 8 7 7 6 6 6 6 6 6 5 5 5 5 6 6 7 7 8 9 9 9 9 9 9 10 9 10 10 11 12 13 13 14 15 16 17 19 20 21 21 23 24 24
61 56 52 48 41 32 22 13 8 5 4 4 3 3 3 3 4 5 6 8 11 12 12 13 13 13 14 13 14 13 12 12 12 12 13 12 11 9 9 9 8 8 7 7 7 6 6 6 6 6 6 6 6 7 7 8 8 9 9 9 10 10 10 11 11 11 11 11 11 12 13 13 14 14 15 17 17 18 20 21 22 23 24 25 26
60 54 50 46 41 32 22 13 9 5 3 4 3 3 4 3 5 6 7 10 12 12 12 13 13 14 14 13 14 13 13 12 12 13 12 11 10 9 9 9 8 8 8 7 7 7 7 7 8 8 8 9 9 9 10 10 10 11 11 11 12 12 12 12 12 13 13 13 13 13 14 14 15 15 17 18 19 19 21 22 24 25 26 27 28
58 52 48 46 43 36 26 18 12 6 3 4 3 3 4 4 5 6 8 12 12 12 13 13 14 14 14 14 14 13 13 13 13 13 11 10 10 10 9 9 9 9 9 9 9 9 9 10 10 11 11 11 11 12 12 12 13 13 13 13 13 14 14 14 14 14 14 14 15 15 15 17 17 17 18 19 21 21 22 24 26 27 27 27 27
56 51 48 47 47 42 34 27 18 8 3 3 3 3 4 4 6 6 9 13 12 12 13 13 14 15 14 14 14 13 13 13 13 12 11 10 10 10 10 10 10 10 10 10 11 11 12 12 12 13 13 13 14 14 14 14 14 14 15 15 15 15 15 15 15 15 16 16 16 17 17 18 19 19 19 20 22 23 24 26 27 27 26 25 26
55 50 48 49 50 47 40 32 21 9 4 3 3 3 4 4 6 7 10 13 13 13 13 13 14 15 15 15 14 14 13 13 13 12 11 11 11 10 10 10 11 11 12 12 13 13 14 14 14 14 14 15 15 15 15 15 15 16 16 15 15 16 16 16 17 17 18 18 17 18 18 18 19 19 19 20 21 23 25 26 26 26 25 25 26
Wind_Speed
2 3 3 4 4 3 3 4 4 4 5 5 6 6 6 7 7 8 9 9 9 9 9 9 9 9 8 8 8 8 8 8 8 8 9 8 8 7 7 6 5 5 4 4 4 4 4 4 3 3 3 2 2 2 3 3 3 3 4 4 3 2 4 3 2 2 2 1 1 1 2 2 2 2 1 1 1 2 1 1 1 0 1 1 1
2 3 4 3 3 3 4 4 4 4 5 6 6 6 7 7 8 9 10 10 9 9 8 8 8 8 8 7 8 8 8 8 8 8 8 7 6 6 5 4 4 3 3 3 3 3 3 3 3 2 2 3 3 3 4 4 4 4 5 5 4 3 4 4 3 3 2 3 2 1 2 3 2 2 1 1 1 2 2 1 1 2 1 1 0
3 4 3 3 3 4 4 4 4 4 5 6 7 7 8 9 9 10 10 9 9 8 8 8 7 7 7 7 8 8 8 8 7 6 6 5 4 4 3 3 3 3 3 2 2 2 2 2 2 2 3 4 4 4 4 5 5 6 6 5 4 4 4 4 3 2 2 4 4 4 4 4 3 2 2 2 2 2 1 1 3 2 1 0 0
4 3 3 3 4 4 4 4 4 4 6 7 8 9 9 10 10 9 9 9 8 8 7 7 6 7 7 7 8 8 7 6 5 4 4 3 3 3 3 2 2 2 2 2 2 2 2 2 2 3 4 5 5 6 6 6 6 7 7 6 5 5 4 4 4 3 4 4 4 5 5 4 3 2 2 1 1 1 2 4 4 3 2 1 1
3 3 2 3 3 4 4 4 4 5 6 6 8 9 9 9 8 8 8 8 8 8 6 6 6 6 7 7 7 7 6 5 4 3 3 2 2 2 2 2 2 2 2 2 2 2 2 2 3 4 5 5 6 7 7 7 7 7 7 7 6 5 5 5 4 4 6 5 5 5 5 4 3 2 2 2 1 2 5 6 5 4 3 2 2
2 2 2 2 3 4 4 4 4 5 6 6 8 8 8 8 8 7 7 7 7 7 6 6 6 6 7 7 6 5 4 3 3 2 2 2 2 1 1 1 1 2 2 2 2 3 3 3 3 4 5 6 7 7 7 7 7 7 7 7 6 6 6 6 5 5 7 7 6 6 5 5 4 4 3 4 4 5 8 8 7 5 4 4 4
2 2 2 3 3 3 4 4 5 5 6 7 7 7 7 7 7 7 7 7 6 6 6 6 6 6 6 6 5 4 3 2 1 1 1 1 1 1 1 1 1 2 2 2 3 3 3 3 4 5 5 6 7 7 7 7 7 7 8 8 7 7 7 7 6 6 8 8 8 7 7 6 6 6 5 6 6 8 10 9 7 6 6 5 6
1 2 2 3 3 4 5 5 6 6 7 7 6 6 6 6 6 6 6 6 6 5 5 6 6 5 5 4 3 2 2 1 1 1 1 1 1 1 2 2 2 2 2 3 3 3 3 3 4 5 6 7 7 7 7 6 6 7 7 7 7 7 8 7 7 7 8 9 8 8 8 8 8 7 7 8 8 9 11 9 7 6 6 6 6
2 2 2 2 3 5 6 6 7 7 6 6 6 6 6 6 5 5 5 5 5 5 5 5 4 4 4 3 2 1 1 0 0 0 1 1 2 2 2 2 2 2 3 4 3 4 4 4 5 6 7 7 6 7 6 6 6 6 6 6 6 7 7 8 8 8 8 8 9 9 9 8 8 8 8 8 8 10 10 9 8 7 7 6 6
2 2 2 3 4 5 7 7 7 6 5 5 5 5 6 5 4 4 4 4 4 5 4 3 3 3 2 2 1 1 1 1 0 0 1 1 1 2 2 2 2 3 3 4 5 6 5 5 6 6 7 7 6 6 6 6 5 5 5 6 6 7 8 8 8 8 8 8 9 9 9 9 8 8 8 9 9 9 9 9 9 8 8 8 7
2 1 2 3 4 5 6 6 5 5 5 5 5 5 5 4 3 3 3 4 4 3 2 2 2 1 1 1 1 1 1 1 1 1 1 1 1 2 2 2 3 3 4 4 6 7 6 5 5 6 7 7 7 5 5 5 5 5 5 6 7 8 8 8 8 9 9 9 9 10 10 10 9 9 10 10 10 10 10 10 9 9 8 8 8
1 2 2 3 4 5 6 5 5 5 5 4 4 4 3 3 3 3 3 3 2 2 1 2 2 2 2 2 2 2 2 2 2 1 1 1 1 2 3 3 4 4 5 6 7 7 7 6 6 7 7 7 7 4 5 6 6 6 5 7 8 9 9 9 9 10 10 10 10 10 11 10 10 10 10 9 9 10 10 10 10 10 9 9 9
1 2 3 3 5 6 5 5 5 5 4 4 3 3 3 3 3 2 2 2 1 2 2 3 2 3 3 3 3 3 3 3 2 2 1 1 1 2 4 4 5 6 7 7 8 8 8 8 7 8 8 7 6 4 5 7 6 6 7 9 9 10 10 9 10 10 10 9 9 10 10 9 10 9 8 8 8 9 9 9 9 10 10 9 9
1 3 4 4 5 6 5 5 5 5 4 3 2 2 2 2 1 1 1 2 2 3 3 3 3 4 4 4 4 4 4 4 3 3 2 1 0 2 4 4 6 7 7 7 8 8 9 8 7 9 8 6 6 4 6 7 6 6 7 9 10 10 10 9 9 9 9 8 7 8 9 9 9 9 9 8 8 8 8 8 8 8 9 9 9
2 4 4 5 6 5 4 4 4 4 3 3 2 2 1 1 1 2 3 3 4 4 4 5 5 5 5 5 5 6 6 5 5 4 3 2 1 2 4 4 5 7 8 7 7 8 8 8 7 8 7 6 5 5 7 7 6 6 6 9 10 10 10 9 9 8 7 7 7 7 7 7 8 8 9 9 9 8 8 8 7 7 8 8 8
3 4 5 5 6 5 4 3 4 4 3 3 2 2 1 2 2 3 4 4 4 4 5 5 6 6 6 7 7 7 6 6 6 5 5 4 2 2 3 4 4 6 7 7 7 8 8 8 7 7 7 6 6 6 6 7 6 6 6 8 10 10 9 9 8 7 6 6 6 6 5 6 8 8 8 9 9 8 8 8 7 6 7 7 7
4 4 5 6 5 4 3 3 4 4 3 3 3 2 2 3 3 4 5 5 5 5 6 6 6 7 7 7 7 7 7 7 7 6 6 5 3 2 3 3 4 5 6 7 7 7 7 8 7 7 7 6 5 5 6 6 6 5 6 8 10 9 8 8 7 6 6 5 5 4 4 5 6 5 6 8 8 7 8 8 7 7 7 7 7
5 5 6 5 4 4 3 3 3 3 3 3 3 4 4 4 5 5 5 6 6 6 7 7 8 7 7 7 7 7 7 8 8 7 7 6 5 4 4 4 5 5 5 6 7 7 7 7 7 6 7 6 5 5 5 6 6 6 6 8 8 7 7 7 7 7 6 6 4 4 3 3 2 1 2 4 6 6 6 5 5 7 7 8 8
5 6 6 5 5 4 3 3 3 3 4 4 4 4 4 5 5 6 7 7 7 8 8 8 8 7 7 7 8 8 8 9 8 8 7 7 7 6 6 6 6 6 6 6 7 6 6 6 6 6 5 5 4 4 5 6 6 6 6 7 6 6 6 6 7 7 7 7 6 5 4 3 2 1 1 2 2 3 2 3 3 4 6 7 7
6 6 6 5 5 4 4 4 4 4 5 5 4 4 5 6 7 7 8 8 8 8 7 7 7 7 8 8 8 8 8 9 9 8 8 7 8 8 8 8 8 7 6 6 6 6 6 6 6 5 5 5 3 4 5 7 6 5 5 5 5 5 6 6 7 7 7 7 7 5 4 4 3 2 1 1 1 2 2 2 3 3 4 5 5
6 6 6 6 5 5 4 4 5 5 5 5 5 5 6 7 7 7 8 9 8 7 6 6 6 7 8 8 8 8 8 9 9 8 8 8 8 8 9 9 9 8 7 7 7 6 7 7 6 5 5 5 3 3 4 5 5 3 3 3 4 5 5 6 6 6 6 6 6 5 4 5 5 4 3 3 2 3 3 3 4 3 4 4 3
7 6 6 6 5 5 5 5 6 6 5 5 5 6 6 7 7 7 8 8 7 7 6 6 7 8 8 8 7 7 8 9 8 7 8 8 9 9 9 10 10 9 8 8 8 8 7 8 6 5 4 4 4 3 3 3 3 3 3 3 4 4 5 5 5 5 5 5 5 4 4 4 5 4 3 3 3 3 3 3 3 3 3 3 3
7 6 6 5 5 5 6 6 7 7 6 5 5 6 6 7 7 8 9 8 7 6 7 7 7 8 8 8 8 5 6 8 7 8 7 8 9 9 9 10 11 10 9 9 9 8 8 8 7 5 4 4 4 4 3 3 3 2 2 3 3 3 3 4 4 5 5 6 6 5 4 3 4 4 4 3 3 3 2 2 2 2 2 2 3
7 6 6 5 5 6 6 7 7 6 6 6 6 6 7 8 8 8 8 7 7 6 7 9 8 8 8 8 8 5 6 8 7 8 7 6 8 9 9 10 11 11 11 10 9 8 9 8 7 6 4 3 3 4 4 4 3 2 2 2 1 1 2 3 4 5 5 6 7 7 5 4 3 4 4 3 2 2 2 1 1 1 2 2 2
7 6 6 5 6 7 7 7 6 6 6 6 6 7 7 8 9 8 8 8 8 7 8 9 7 7 7 6 7 6 6 6 6 8 7 5 7 8 8 9 10 12 12 11 9 8 8 8 7 6 5 3 1 3 5 4 3 1 1 0 1 1 3 4 5 6 6 7 7 7 6 5 4 4 4 4 2 2 1 1 1 2 3 3 3
7 6 6 6 6 7 8 7 7 7 7 6 5 6 7 9 10 10 10 9 8 7 6 8 9 7 6 5 6 6 6 5 6 6 5 4 5 6 7 8 10 11 12 11 10 9 8 8 8 7 6 4 1 1 4 5 3 1 1 1 2 3 4 5 6 6 6 6 7 7 6 4 4 4 4 4 4 3 2 2 3 5 6 6 6
7 7 7 7 7 8 9 9 8 7 5 5 5 6 9 10 11 10 9 8 6 6 5 7 9 7 5 5 6 6 5 5 5 4 3 3 3 4 5 7 9 11 11 11 10 9 9 9 8 7 7 4 1 1 2 3 2 2 2 3 3 3 4 5 7 7 7 6 7 7 5 3 3 3 4 4 4 4 5 5 6 6 7 7 8
7 7 7 8 9 9 10 8 7 6 5 4 5 7 10 11 10 9 8 7 6 6 6 7 8 7 4 5 6 5 4 4 4 3 2 2 2 3 5 6 8 10 11 11 10 10 9 9 9 8 7 5 2 3 3 3 4 4 4 5 5 5 6 8 9 9 8 6 6 7 5 3 4 4 4 5 5 5 5 5 6 6 7 8 8
7 7 8 9 10 10 9 8 6 6 5 5 7 9 10 10 11 11 10 8 8 7 7 7 8 7 5 5 6 4 3 4 4 3 2 2 2 4 5 6 8 10 11 11 11 10 9 9 9 8 7 5 4 5 5 5 5 5 5 6 7 7 8 9 10 10 8 5 4 5 4 4 4 4 5 5 5 5 5 5 6 7 7 7 7
8 7 8 9 9 9 7 7 6 6 6 6 8 9 10 11 12 12 11 9 9 8 7 7 8 7 6 6 5 4 4 4 4 3 2 2 3 4 5 6 7 10 11 11 11 10 9 8 9 8 6 6 6 7 7 6 6 6 7 8 8 8 8 8 7 8 6 4 3 4 4 4 4 4 4 5 5 5 5 6 7 7 6 6 5
9 8 9 10 9 7 6 6 7 6 7 8 9 10 11 11 12 12 11 10 10 9 7 6 7 7 7 6 5 5 5 5 4 3 3 3 3 4 5 5 6 8 10 10 10 9 9 9 8 7 6 7 7 7 6 6 6 7 8 9 9 8 7 6 5 6 6 4 3 4 4 4 4 4 4 5 5 6 6 6 5 5 5 5 5
9 9 10 10 8 7 6 6 7 7 8 9 10 11 11 11 12 12 11 11 10 8 7 7 7 7 7 6 6 5 5 5 4 3 3 3 4 4 4 5 6 7 9 10 10 9 8 8 8 7 7 7 6 6 5 5 5 6 7 8 8 7 7 7 6 5 5 4 3 4 4 4 3 3 4 5 5 5 5 5 4 5 6 6 6
10 10 10 9 7 7 7 7 7 9 10 11 12 12 12 12 12 12 12 11 9 7 7 7 7 7 7 7 6 6 6 5 5 4 4 4 4 5 5 6 6 7 8 8 8 8 7 7 8 8 7 7 6 6 5 5 4 4 6 7 7 7 8 8 6 4 4 4 3 3 3 2 2 3 4 4 4 4 4 5 6 6 7 7 6
10 9 9 8 7 7 7 7 8 10 12 13 14 14 13 13 13 13 12 11 9 6 6 7 7 7 7 8 8 7 6 5 5 5 4 4 5 5 6 5 6 7 7 7 7 7 7 7 8 8 8 7 6 6 5 5 4 4 5 6 5 6 8 7 6 4 3 2 3 3 2 1 2 3 3 4 3 4 5 6 7 7 7 6 6
9 9 8 8 8 8 8 8 10 11 13 14 15 15 14 14 13 12 12 10 7 5 7 8 7 7 8 8 8 8 6 5 5 5 4 5 5 5 5 5 6 7 7 7 7 7 7 6 7 8 7 6 6 6 6 5 5 5 5 5 5 5 6 6 5 4 3 3 3 2 1 1 2 3 3 3 3 5 6 6 6 6 6 6 6
8 9 9 8 8 8 8 9 11 13 15 16 15 14 13 13 12 12 12 9 7 5 7 8 7 8 8 8 8 7 6 5 5 5 5 5 5 5 6 6 7 8 8 8 8 8 7 6 5 6 6 6 6 6 6 5 5 5 5 5 5 4 5 5 4 3 4 4 3 2 1 2 2 2 3 4 5 6 6 6 6 6 7 8 8
9 9 8 8 7 8 8 9 12 15 16 16 15 13 12 12 12 12 12 9 6 6 7 8 8 8 8 7 8 7 5 5 5 5 5 5 6 6 7 7 8 8 8 8 9 9 8 7 6 6 6 6 6 6 6 6 6 5 5 5 4 3 3 3 3 3 4 4 4 3 2 1 1 2 3 4 5 6 7 7 8 8 8 9 10
9 9 8 7 7 8 9 11 13 16 17 15 14 13 12 12 12 12 11 8 6 6 7 8 8 9 8 7 7 6 5 5 5 5 5 6 7 7 7 7 7 8 8 8 8 9 8 8 8 8 7 6 7 7 7 7 7 7 6 6 5 3 2 3 2 2 2 3 4 3 2 1 1 2 4 4 5 6 7 8 8 9 9 10 10
8 8 7 7 7 8 10 12 13 15 16 16 14 13 12 12 12 12 10 7 6 7 8 8 8 8 7 7 6 5 5 5 4 5 6 6 7 8 8 8 7 7 8 8 8 8 8 9 9 9 8 7 7 8 8 8 8 8 7 6 5 4 4 3 3 3 3 2 2 1 1 2 2 3 4 4 4 4 5 6 7 8 9 10 11
8 8 7 7 8 9 10 12 14 15 16 16 14 12 11 12 12 11 8 6 6 8 9 9 8 8 7 6 6 5 5 5 4 5 6 7 8 8 8 7 7 6 7 7 7 7 8 9 9 8 8 8 8 8 8 8 9 8 7 6 6 4 3 3 3 2 2 2 3 3 3 3 3 4 4 5 5 4 4 5 7 8 8 10 11
9 8 7 7 8 10 11 12 14 16 16 14 13 12 11 12 11 9 7 7 7 8 9 9 8 7 7 6 6 6 6 5 5 5 6 7 8 8 8 7 7 7 6 6 6 6 7 8 9 8 8 9 9 9 9 9 8 7 7 7 7 5 4 4 4 3 3 3 3 3 2 3 3 4 4 5 6 6 7 7 7 8 8 9 10
8 7 6 7 9 10 11 12 14 15 14 13 12 11 11 11 10 9 8 7 8 8 9 9 7 7 7 7 7 7 7 7 6 6 6 7 8 8 8 7 7 7 7 7 6 7 7 8 9 9 9 9 10 9 8 8 7 6 6 7 7 6 5 6 5 4 3 2 2 3 2 2 3 4 5 5 6 8 9 10 10 9 9 10 10
8 7 7 8 9 10 11 13 14 14 13 12 11 11 11 11 10 9 8 8 8 9 9 9 8 8 8 8 8 8 8 8 7 7 8 8 9 8 8 8 8 8 8 7 7 7 8 8 9 9 9 9 9 9 8 7 6 6 6 6 6 5 5 6 6 5 4 2 3 4 3 1 3 5 6 6 6 8 10 11 11 10 10 11 11
7 7 7 8 9 10 11 12 13 13 13 11 11 11 11 11 10 9 8 9 9 9 9 9 9 9 9 8 9 9 9 8 8 9 9 9 9 9 8 8 8 8 7 7 7 7 7 8 8 9 9 8 8 8 7 7 6 6 6 5 5 5 5 5 5 4 4 4 4 5 3 3 4 5 6 6 6 7 8 10 11 11 10 11 11
8 7 7 8 9 11 11 12 12 13 12 11 10 10 10 10 9 8 8 9 9 9 9 10 9 9 9 9 9 10 9 9 9 10 10 10 10 10 9 9 8 8 8 7 7 7 7 7 8 8 8 8 8 7 6 6 6 5 5 4 4 4 4 4 4 4 5 5 5 5 4 4 6 7 7 7 6 7 8 9 10 10 11 11 12
8 7 8 8 10 11 11 11 12 12 11 10 9 9 9 9 8 8 8 9 9 9 10 10 10 10 9 10 10 10 10 10 11 11 11 11 11 11 10 9 8 8 7 8 8 8 8 8 8 9 8 8 8 8 7 6 6 5 4 4 4 3 3 3 4 4 4 5 5 5 5 6 8 9 9 8 8 8 9 9 10 11 11 12 12
8 8 9 9 10 10 10 11 12 11 10 9 9 8 9 10 9 10 9 9 9 10 11 10 10 10 11 11 11 11 12 12 12 12 11 11 11 11 10 10 9 9 8 7 7 8 8 8 8 8 9 8 8 8 7 6 5 4 4 3 3 3 3 4 4 4 4 4 5 5 6 7 8 8 8 8 9 9 9 10 11 11 12 12 12
9 9 9 9 9 9 9 11 11 11 10 10 9 8 10 11 11 10 9 9 10 11 12 11 11 12 12 12 12 12 13 13 13 12 12 11 11 11 11 11 10 10 9 8 7 7 7 7 7 7 7 7 6 5 5 5 4 4 4 4 4 4 5 5 5 5 5 4 4 5 6 6 6 7 7 7 8 9 10 10 10 11 12 12 12
11 10 9 9 9 8 9 10 11 11 10 10 9 8 10 12 12 10 9 9 10 11 12 12 12 12 13 13 14 14 14 14 14 13 12 12 11 11 11 10 10 10 9 9 8 8 7 7 6 6 5 5 5 5 5 5 4 4 4 4 4 4 4 4 4 4 4 4 4 5 5 5 5 6 6 6 7 9 9 10 10 11 12 12 13
12 11 10 9 8 8 10 10 10 11 10 10 9 9 10 12 12 10 9 9 10 11 12 12 13 13 13 14 15 15 15 15 14 14 13 12 11 11 11 10 10 10 10 10 9 8 7 6 5 5 5 5 5 5 5 4 4 3 3 3 3 2 2 2 2 3 5 5 5 6 7 7 7 8 7 7 7 8 9 10 10 11 12 13 14
12 12 10 9 8 9 9 9 10 10 10 10 9 9 11 12 12 11 10 10 10 11 12 12 13 13 13 15 15 16 16 16 15 14 14 13 12 11 11 11 11 10 10 10 9 8 7 6 5 5 5 5 5 4 4 3 3 3 2 2 1 1 1 2 3 4 5 6 7 7 8 8 8 9 9 9 9 9 9 10 11 12 12 13 14
Wind_Direction
321 337 334 327 335 331 312 307 308 297 285 285 287 286 282 280 275 272 268 267 268 271 276 280 282 282 281 280 283 291 296 300 302 306 308 309 309 308 307 307 305 302 300 296 294 299 309 311 312 310 306 310 323 337 347 12 38 64 79 86 91 66 70 80 93 108 117 108 21 275 218 205 207 224 211 191 228 236 226 214 216 196 33 28 16
315 329 328 327 336 327 314 307 305 288 276 276 281 283 279 276 274 274 272 272 273 275 280 283 285 285 286 289 293 298 300 302 304 306 308 309 307 304 301 300 298 299 298 297 299 309 323 324 328 333 344 6 22 28 35 49 67 81 86 90 91 91 103 114 114 117 115 100 85 66 154 158 170 197 190 174 205 217 214 186 127 85 64 47 43
316 333 333 328 330 322 314 307 299 280 269 271 275 277 275 274 274 275 275 275 276 278 283 286 288 291 294 297 298 298 300 303 306 307 310 310 305 301 298 300 299 303 308 312 323 335 341 340 347 1 20 37 50 55 62 71 79 82 86 93 96 102 108 111 115 124 105 101 103 93 106 129 143 167 167 171 184 185 198 85 72 72 64 275 228
322 340 336 322 321 318 311 304 287 274 266 266 269 271 273 273 275 277 278 276 276 279 284 289 291 295 297 298 299 300 304 308 310 312 312 307 300 297 297 302 304 313 327 331 345 1 5 3 12 33 45 55 63 67 72 77 80 82 88 95 95 95 94 99 109 108 98 105 111 102 103 114 129 148 150 172 180 147 100 69 64 64 62 65 72
329 344 330 318 319 314 304 293 277 269 266 267 268 270 270 270 275 279 280 276 275 280 283 287 290 295 297 300 303 304 307 308 308 309 306 303 297 300 308 311 318 326 329 339 5 16 22 19 29 44 52 60 66 69 75 77 79 84 91 96 94 97 102 102 103 100 98 102 107 108 110 115 127 132 123 118 101 78 76 75 73 76 76 68 67
337 346 331 323 319 308 288 275 268 269 270 271 272 270 269 271 275 277 277 276 276 280 283 286 292 297 301 302 302 301 301 303 303 305 311 313 313 315 328 330 331 331 331 1 23 22 22 12 28 38 45 59 68 75 78 79 83 88 93 98 100 103 106 103 105 101 95 98 103 107 111 113 112 106 103 99 84 67 72 80 81 82 81 73 76
348 360 345 325 310 291 274 267 269 275 276 276 276 273 273 275 275 274 275 276 280 284 288 293 298 300 303 302 299 298 296 299 303 320 347 354 346 347 346 344 336 332 350 28 35 32 26 14 32 34 38 58 72 79 80 83 89 93 95 99 102 102 103 103 104 100 94 96 102 105 106 105 102 98 92 86 79 75 77 80 82 87 89 85 82
12 7 344 318 297 279 272 271 279 281 279 278 277 277 279 280 276 275 276 279 284 287 291 293 296 301 303 302 298 299 295 294 311 6 37 19 3 355 346 337 326 332 6 37 37 43 40 32 42 37 43 60 72 80 84 89 91 96 103 106 103 102 102 102 101 99 94 91 95 98 98 98 96 93 88 80 76 76 79 80 79 80 82 81 81
27 15 344 311 290 280 277 277 284 281 276 276 278 282 282 283 280 278 279 280 284 285 287 290 296 303 301 300 294 288 274 256 354 29 16 360 351 351 350 337 336 354 28 48 57 64 60 54 56 49 51 59 70 81 88 90 90 99 109 109 102 99 99 100 101 96 90 89 94 95 95 94 92 91 89 84 76 74 79 83 81 75 70 68 66
42 24 337 304 288 281 281 280 278 273 271 277 279 279 280 281 281 281 282 282 284 286 288 292 298 298 294 286 277 248 229 194 167 338 329 332 348 356 7 4 8 19 45 66 75 80 76 68 72 66 60 62 70 84 94 94 95 99 103 105 102 100 99 101 100 95 93 98 101 99 95 94 91 87 85 82 76 75 79 80 78 76 74 71 65
49 9 330 297 287 281 278 274 265 266 273 277 278 277 281 284 289 293 290 289 288 293 293 287 280 266 260 232 212 198 200 191 218 271 282 315 6 26 54 57 38 32 56 79 84 92 94 85 85 78 74 75 74 82 95 93 92 97 103 108 102 98 95 96 98 99 101 102 103 101 95 91 86 82 82 82 80 80 77 76 79 80 78 76 74
25 349 326 291 279 275 267 263 264 272 273 274 280 284 287 293 303 301 295 293 288 282 250 231 224 208 199 192 193 196 210 218 232 256 271 335 32 70 91 80 64 62 73 81 84 89 93 92 89 83 82 83 80 77 85 87 91 98 105 101 94 94 95 96 98 100 101 100 100 99 94 91 87 85 85 85 85 85 82 81 83 82 80 79 79
360 328 299 276 267 266 260 260 269 271 270 270 274 280 288 302 305 300 291 275 232 215 211 215 212 211 213 210 211 217 232 241 244 258 280 340 44 104 110 93 80 78 78 81 83 82 83 89 89 86 87 87 87 76 78 90 94 96 98 93 90 93 94 94 96 98 97 98 99 98 94 89 87 85 81 81 82 85 88 87 85 84 81 80 81
327 303 274 264 261 259 257 258 265 262 262 255 253 272 286 298 282 267 231 204 206 212 215 220 224 229 233 233 235 242 251 254 249 251 264 287 73 126 121 103 90 87 85 83 84 83 82 88 90 92 94 92 93 79 74 84 88 92 95 94 92 89 88 88 91 93 92 90 90 89 87 86 87 85 82 83 82 84 89 89 88 87 83 82 83
297 280 263 258 258 254 254 254 253 251 247 236 247 272 278 259 217 197 184 194 212 219 222 226 235 245 250 252 250 254 258 259 251 242 244 246 212 140 129 113 99 94 93 91 89 88 86 88 89 93 95 89 85 74 71 73 73 85 96 98 94 89 89 89 87 87 85 81 76 76 78 83 86 86 84 84 84 84 88 91 90 88 85 83 86
279 265 253 253 255 250 247 242 239 232 223 227 246 255 238 216 201 190 193 208 224 229 234 240 250 258 264 264 259 259 262 261 257 249 244 236 220 166 142 131 113 103 100 98 96 93 89 87 84 84 84 78 78 75 75 77 76 84 94 100 97 93 92 89 84 80 75 70 70 72 71 77 81 79 78 83 83 80 89 96 93 96 100 94 88
260 247 245 247 245 241 237 228 227 219 219 230 234 229 214 207 205 205 215 231 239 245 252 259 264 265 265 262 259 260 262 262 259 255 252 245 230 203 175 160 139 124 112 105 100 99 95 91 86 81 79 76 80 84 84 87 91 94 99 103 100 94 89 85 78 69 64 60 64 69 57 68 82 78 75 91 94 93 106 106 99 110 121 116 105
245 237 238 240 243 243 235 224 223 223 226 222 214 216 211 211 214 220 234 246 253 261 265 269 269 266 263 258 257 256 257 256 253 252 252 251 241 224 208 188 167 150 128 113 107 107 107 100 96 86 82 80 80 86 89 97 104 103 104 102 97 92 87 82 71 61 55 52 55 53 31 25 48 69 98 118 116 117 116 94 90 119 136 134 126
234 230 230 242 255 251 236 229 228 229 225 213 213 221 221 222 225 233 244 254 263 268 268 269 266 263 258 252 252 249 250 252 251 248 247 248 243 232 220 206 187 167 144 124 116 119 120 113 109 99 91 88 86 91 95 103 107 108 105 96 89 88 86 80 71 60 52 49 48 44 35 25 4 335 236 201 158 159 141 74 78 115 134 143 144
221 223 234 251 255 245 239 236 229 226 225 218 222 232 234 233 235 240 249 261 268 268 267 266 262 259 256 250 247 245 247 253 252 244 243 244 240 232 224 214 198 179 159 139 131 132 133 130 124 119 110 104 101 94 94 98 102 106 103 96 85 78 77 74 70 61 52 47 42 35 36 51 43 32 37 13 135 169 167 107 107 100 104 127 144
215 223 239 250 246 243 242 234 226 225 231 230 233 240 243 243 246 252 262 271 272 269 267 263 261 258 257 253 250 250 249 254 253 241 238 242 238 230 222 216 206 189 171 156 148 147 149 148 139 130 123 122 122 94 91 95 98 103 99 90 71 61 65 65 64 55 48 43 35 28 32 50 52 46 48 51 72 105 116 113 118 109 100 103 109
219 229 239 246 248 247 239 232 228 227 236 235 235 242 248 252 257 268 274 274 272 272 271 267 266 259 259 261 259 256 249 253 256 246 237 235 235 227 219 214 208 196 183 173 165 161 163 163 152 145 137 131 128 105 98 94 89 95 91 67 45 45 49 45 43 35 30 29 21 16 24 42 52 51 46 48 58 75 90 94 101 100 100 97 90
221 229 238 245 248 243 235 231 228 229 235 236 241 250 259 265 269 275 275 272 273 278 282 280 274 269 271 271 271 264 249 257 260 254 243 229 230 227 219 213 207 199 191 187 181 175 175 176 170 168 165 144 129 114 108 94 80 79 62 36 28 30 28 21 19 17 15 17 14 9 12 26 43 51 45 39 42 49 60 68 84 90 90 84 68
223 232 237 238 239 233 225 223 225 230 237 245 256 263 269 272 271 272 269 270 277 286 293 285 277 279 282 277 280 278 253 263 261 256 253 231 226 226 221 217 211 202 196 194 194 191 187 190 192 193 194 175 139 121 114 86 77 94 55 29 16 348 360 1 1 5 10 13 12 8 6 11 26 45 45 33 25 30 23 3 32 34 46 65 65
228 237 232 227 228 223 217 216 222 231 243 254 261 267 272 274 273 273 273 276 279 284 292 289 285 286 284 276 277 270 252 256 249 248 251 232 224 224 221 220 218 208 200 196 197 204 203 205 210 212 216 215 180 130 121 87 77 122 44 338 234 339 350 348 349 356 6 9 8 6 2 5 13 27 38 29 20 30 12 333 15 42 57 72 84
233 237 231 228 225 220 214 214 224 234 247 261 271 278 279 274 269 267 266 269 272 275 285 291 292 289 282 269 258 255 252 250 242 244 251 239 227 224 221 219 219 213 205 200 200 209 212 215 219 221 229 235 252 133 125 95 95 158 315 321 331 348 343 340 345 353 359 0 2 2 359 6 12 16 29 24 19 41 64 65 69 76 84 90 94
233 237 237 234 225 219 216 222 235 244 258 278 288 280 270 263 259 260 260 263 273 279 285 289 289 287 280 262 250 247 250 252 251 251 249 241 225 215 216 214 214 211 207 205 205 211 214 221 228 233 244 245 233 200 143 118 150 212 284 314 323 321 324 330 336 343 348 349 355 2 8 21 23 26 36 36 37 57 73 79 82 86 90 93 94
232 238 238 234 227 220 220 231 243 253 268 283 276 263 261 262 265 271 274 279 286 290 292 289 286 284 271 253 249 245 244 250 255 254 233 217 203 181 197 206 206 206 205 207 210 213 216 224 237 246 256 251 212 215 194 174 212 245 280 296 303 311 322 328 335 339 339 340 347 2 21 41 45 53 58 58 60 69 76 81 86 88 88 90 92
235 235 231 228 226 225 227 236 247 261 281 286 273 267 269 273 279 282 284 288 289 292 292 282 274 272 263 249 246 246 248 249 251 257 239 201 180 170 186 199 200 201 202 207 213 218 221 227 240 250 257 253 231 226 217 205 228 255 274 285 299 320 332 338 348 352 349 351 357 11 35 56 59 67 72 75 77 80 87 93 96 96 92 90 87
235 227 221 222 225 228 232 242 256 274 286 283 274 270 270 273 277 279 282 283 283 288 289 275 268 268 265 255 250 247 248 250 248 253 240 194 177 175 186 193 195 199 200 207 215 221 228 233 240 250 258 258 250 239 231 227 238 258 270 285 302 322 339 350 2 10 19 35 39 37 53 64 67 76 82 88 93 97 101 101 100 98 93 86 75
233 224 219 220 221 226 235 248 262 276 278 275 273 270 270 272 273 273 275 276 281 289 287 273 267 270 269 263 262 258 253 257 248 239 224 190 180 177 184 186 186 191 194 203 214 222 233 241 244 248 255 259 255 247 248 253 256 262 271 287 305 321 346 8 17 23 37 49 44 44 53 58 60 74 83 90 95 99 99 94 87 76 64 53 44
231 226 226 226 226 229 238 249 262 276 277 275 276 275 275 275 274 274 273 275 281 287 282 270 262 264 264 261 264 261 256 255 245 233 216 193 183 178 179 177 172 178 188 198 208 219 235 252 260 257 259 262 258 252 260 269 262 259 273 292 311 336 11 33 35 32 38 41 36 38 46 50 53 67 77 84 90 90 82 68 51 37 26 20 16
226 225 229 230 231 235 241 249 264 280 283 283 283 280 280 279 277 276 274 276 279 285 282 269 262 258 254 254 256 256 255 252 246 234 217 199 185 183 182 178 171 171 185 197 207 219 233 253 266 267 267 271 272 268 269 277 276 268 283 301 325 3 32 43 45 36 30 33 33 41 47 47 56 74 85 87 85 72 51 30 18 12 7 4 1
224 223 227 228 229 237 248 259 270 278 280 284 286 284 281 277 275 273 273 276 276 280 274 260 260 258 252 256 257 254 254 252 247 234 219 204 193 193 189 183 181 182 190 199 209 220 231 245 258 264 266 272 278 279 281 291 301 297 297 314 347 20 33 45 57 58 46 39 45 57 60 44 67 83 85 78 55 33 20 10 3 358 356 353 347
225 221 223 226 229 241 258 270 273 273 275 280 281 279 274 270 269 270 271 271 269 271 265 255 255 258 256 260 261 258 253 247 241 227 211 202 196 190 181 179 185 191 194 194 201 210 217 230 245 256 260 267 271 273 282 292 301 307 308 324 353 13 25 40 63 87 91 76 69 76 55 50 88 87 71 52 25 7 1 356 352 349 348 342 338
223 223 221 224 231 248 265 272 274 275 277 278 275 270 268 267 267 267 266 261 260 261 257 253 252 258 262 263 261 258 251 238 228 212 194 187 184 170 164 172 181 186 188 186 190 194 199 205 216 237 246 254 259 263 278 288 299 306 310 322 344 4 22 36 53 80 90 94 106 120 54 31 43 45 23 9 4 352 346 349 348 347 344 341 342
223 223 219 224 238 258 271 275 277 278 279 277 273 270 269 268 264 263 261 256 260 255 244 248 249 255 261 260 257 254 246 231 210 188 177 174 168 162 164 176 180 179 180 182 185 183 183 184 186 206 223 233 242 252 269 283 293 295 299 310 328 356 23 36 36 54 77 102 123 129 127 108 2 8 356 352 352 343 342 347 346 346 343 341 339
225 224 220 233 252 271 280 279 279 279 282 280 273 271 269 266 260 258 257 255 260 250 238 244 248 253 256 254 252 248 241 224 199 173 165 169 164 160 165 176 178 174 173 178 184 179 173 177 181 191 204 215 224 234 251 267 281 287 293 300 310 329 3 31 23 25 56 90 107 110 117 129 352 351 344 343 349 345 341 342 342 340 338 334 330
226 225 227 246 265 279 284 282 282 282 283 280 273 269 266 261 255 252 251 251 253 247 242 241 247 254 252 247 243 238 233 217 192 169 163 167 163 159 162 171 175 176 176 176 182 179 169 175 185 190 194 200 208 217 232 248 261 271 283 296 310 328 356 14 354 348 15 30 32 35 27 14 352 340 334 335 350 348 333 334 337 335 332 327 324
225 227 238 259 273 281 286 285 286 283 280 276 270 266 261 256 251 247 243 243 246 246 247 244 246 250 243 239 232 222 221 210 190 172 168 166 161 159 161 169 175 181 188 184 181 179 172 174 182 188 188 191 200 205 214 227 238 247 260 275 288 307 330 331 309 314 334 300 294 314 338 348 335 329 332 334 339 339 330 336 335 328 326 324 321
223 232 249 268 280 285 287 287 285 281 276 270 266 262 257 253 248 243 236 236 238 239 247 248 246 247 236 226 219 212 207 200 192 179 174 168 161 159 163 172 181 185 197 199 188 178 174 173 175 179 180 182 195 204 207 216 225 230 236 248 260 268 271 268 262 248 222 221 253 289 312 317 316 325 337 334 328 330 335 334 327 320 317 313 310
228 244 259 272 284 287 288 288 284 278 271 265 265 262 257 253 246 240 234 235 237 235 243 246 241 239 229 215 211 212 204 195 193 184 178 173 165 163 168 178 188 194 199 200 191 180 176 173 171 172 173 174 184 194 201 207 213 220 227 239 249 250 246 249 255 250 238 231 256 273 267 286 317 327 329 329 328 332 332 325 319 317 314 309 307
237 253 266 276 284 286 289 289 284 279 271 267 269 264 257 252 245 240 234 234 238 236 240 242 234 227 220 210 207 211 206 197 193 185 179 176 171 170 176 184 190 196 199 194 188 182 178 174 169 167 167 169 177 184 190 194 196 204 218 232 240 243 237 238 251 261 266 279 277 272 267 296 317 316 319 329 337 333 324 316 314 316 315 311 312
246 259 270 281 284 288 292 290 286 282 274 270 270 264 254 247 241 238 233 231 235 238 240 240 233 220 212 210 208 208 206 199 194 186 179 179 179 176 181 188 188 189 191 187 183 183 180 175 171 168 164 162 169 179 183 184 189 193 203 214 221 229 223 230 255 269 278 288 285 280 291 307 298 299 313 326 329 320 312 309 310 312 314 315 317
246 258 270 280 283 291 294 291 289 282 275 271 269 263 250 242 239 237 234 232 235 236 237 237 228 216 209 210 210 207 203 197 193 187 181 182 186 182 180 184 187 184 181 179 177 177 176 173 171 167 163 160 162 169 171 171 178 182 189 196 205 219 217 222 248 249 253 263 258 261 279 292 296 304 316 320 318 312 310 310 311 315 319 320 321
246 257 267 275 283 292 294 292 290 280 273 271 267 259 248 243 240 239 237 234 233 231 234 233 221 212 210 210 210 207 201 195 191 188 185 185 187 184 177 176 181 181 178 175 173 173 173 173 172 167 162 164 165 165 168 169 172 172 176 187 192 207 221 229 236 234 240 250 256 269 285 295 303 311 315 316 313 309 311 314 315 318 320 318 320
249 258 267 274 284 293 292 291 290 282 274 270 266 254 244 242 239 237 236 232 228 224 228 227 214 210 211 209 207 204 198 193 189 188 188 188 187 183 178 174 174 174 173 172 172 173 174 174 174 170 166 169 171 170 171 170 173 177 185 201 206 209 228 246 251 258 261 263 271 275 279 286 296 302 305 308 307 307 313 317 318 319 318 317 320
251 260 269 277 287 293 291 290 290 288 277 266 262 251 241 237 235 236 236 233 225 218 222 221 212 209 210 207 203 199 196 193 190 189 188 189 188 184 180 176 171 169 167 167 171 174 175 174 173 172 171 172 172 176 180 181 188 201 209 219 230 230 235 245 253 263 267 266 269 269 271 280 287 290 292 299 303 307 313 316 319 317 315 316 318
251 260 266 275 286 290 288 289 293 294 280 266 258 249 244 237 236 239 235 232 225 218 221 219 214 212 208 204 200 195 194 192 190 189 188 189 190 186 181 177 172 169 166 165 169 171 173 174 173 173 178 179 178 189 197 197 200 209 218 222 229 237 241 245 255 274 288 295 297 296 300 304 303 298 299 303 305 309 313 316 317 313 311 313 313
251 257 262 271 283 287 286 289 294 294 282 270 257 248 247 243 242 243 235 230 223 221 224 220 217 214 207 203 199 195 193 192 191 190 188 187 190 189 182 177 175 173 169 167 166 169 170 174 175 176 184 186 185 194 195 192 193 195 209 215 217 229 250 277 299 313 318 319 319 316 315 319 318 315 315 317 316 317 316 315 313 309 308 310 308
250 257 264 272 278 280 283 288 293 293 285 273 257 246 247 247 245 243 237 230 218 218 225 223 220 214 207 204 200 196 195 192 190 191 190 188 188 190 187 182 179 176 173 169 167 168 167 170 175 177 181 183 183 188 182 179 183 180 196 219 233 244 273 305 312 316 315 315 316 315 314 317 318 316 318 322 323 320 315 312 309 307 307 307 307